Location: Ecklingerode
(51.5036°N, 10.3122°E)
Time: 01:50:30
(UTC+00:00)

FALCON 9 DEB - Pass Details

Date: 29 October 2020
Orbit: 379 x 394 km, 53.0° (Epoch: 23 November)

Event Time Altitude Azimuth Distance (km) Brightness Sun altitude
Rises 18:01:36 0° 260° (W) 2,294 8.2 -19.9°
Reaches altitude 10° 18:03:40 10° 262° (W) 1,435 6.9 -20.2°
Enters shadow 18:06:35 68° 294° (WNW) 428 3.2 -20.7°
